Time,TemperatureF,DewpointF,PressureIn,WindDirection,WindDirectionDegrees,WindSpeedMPH,WindSpeedGustMPH,Humidity,HourlyPrecipIn,Conditions,Clouds,dailyrainin,SoftwareType,DateUTC
2013-03-05 00:02:00,60.0,-99.9,30.03,South,175,7.0,8.0,-999,-99.99,,,-99.99,,2013-03-05 06:02:00,
2013-03-05 00:11:00,60.0,-99.9,30.03,South,185,6.0,9.0,-999,-99.99,,,-99.99,,2013-03-05 06:11:00,
2013-03-05 00:22:00,60.0,-99.9,30.02,South,182,8.0,10.0,-999,-99.99,,,-99.99,,2013-03-05 06:22:00,
2013-03-05 00:32:00,59.0,-99.9,30.01,South,171,9.0,12.0,-999,-99.99,,,-99.99,,2013-03-05 06:32:00,
2013-03-05 00:42:00,60.0,-99.9,30.01,South,177,10.0,12.0,-999,-99.99,,,-99.99,,2013-03-05 06:42:00,
2013-03-05 00:52:00,61.0,-99.9,30.01,South,187,11.0,13.0,-999,-99.99,,,-99.99,,2013-03-05 06:52:00,
2013-03-05 01:01:00,61.0,-99.9,30.01,South,188,9.0,12.0,-999,-99.99,,,-99.99,,2013-03-05 07:01:00,
2013-03-05 01:11:00,61.0,-99.9,30.01,South,187,9.0,13.0,-999,-99.99,,,-99.99,,2013-03-05 07:11:00,
2013-03-05 01:22:00,60.0,-99.9,30.01,South,186,8.0,12.0,-999,-99.99,,,-99.99,,2013-03-05 07:22:00,
2013-03-05 01:32:00,60.0,-99.9,30.02,South,189,7.0,10.0,-999,-99.99,,,-99.99,,2013-03-05 07:32:00,
2013-03-05 01:42:00,61.0,-99.9,30.02,South,189,6.0,11.0,-999,-99.99,,,-99.99,,2013-03-05 07:42:00,
2013-03-05 01:52:00,60.0,-99.9,30.01,South,184,8.0,12.0,-999,-99.99,,,-99.99,,2013-03-05 07:52:00,
2013-03-05 02:02:00,60.0,-99.9,30.02,SSW,195,6.0,10.0,-999,-99.99,,,-99.99,,2013-03-05 08:02:00,
2013-03-05 02:11:00,60.0,-99.9,30.02,SSW,196,6.0,9.0,-999,-99.99,,,-99.99,,2013-03-05 08:11:00,
2013-03-05 02:21:00,61.0,-99.9,30.01,SSW,205,6.0,10.0,-999,-99.99,,,-99.99,,2013-03-05 08:21:00,
2013-03-05 02:32:00,60.0,-99.9,30.01,SSW,202,4.0,7.0,-999,-99.99,,,-99.99,,2013-03-05 08:32:00,
2013-03-05 02:42:00,60.0,-99.9,30.01,SSW,206,3.0,7.0,-999,-99.99,,,-99.99,,2013-03-05 08:42:00,
2013-03-05 02:52:00,60.0,-99.9,30.01,SSW,207,6.0,10.0,-999,-99.99,,,-99.99,,2013-03-05 08:52:00,
2013-03-05 03:02:00,60.0,-99.9,30.01,SSW,208,6.0,10.0,-999,-99.99,,,-99.99,,2013-03-05 09:02:00,
2013-03-05 03:11:00,60.0,-99.9,30.01,SW,214,5.0,8.0,-999,-99.99,,,-99.99,,2013-03-05 09:11:00,
2013-03-05 03:22:00,60.0,-99.9,30.01,SW,216,6.0,11.0,-999,-99.99,,,-99.99,,2013-03-05 09:22:00,
2013-03-05 03:32:00,60.0,-99.9,30.01,SW,226,8.0,11.0,-999,-99.99,,,-99.99,,2013-03-05 09:32:00,
2013-03-05 03:43:00,60.0,-99.9,30.01,SW,221,6.0,8.0,-999,-99.99,,,-99.99,,2013-03-05 09:43:00,
2013-03-05 03:52:00,59.0,-99.9,30.01,SW,228,4.0,7.0,-999,-99.99,,,-99.99,,2013-03-05 09:52:00,
2013-03-05 04:02:00,59.0,-99.9,30.01,SW,221,4.0,7.0,-999,-99.99,,,-99.99,,2013-03-05 10:02:00,
2013-03-05 04:11:00,59.0,-99.9,30.01,South,189,3.0,6.0,-999,-99.99,,,-99.99,,2013-03-05 10:11:00,
2013-03-05 04:22:00,59.0,-99.9,30.00,South,185,5.0,6.0,-999,-99.99,,,-99.99,,2013-03-05 10:22:00,
2013-03-05 04:32:00,60.0,-99.9,30.01,SW,229,5.0,8.0,-999,-99.99,,,-99.99,,2013-03-05 10:32:00,
2013-03-05 04:42:00,60.0,-99.9,30.01,SW,222,5.0,7.0,-999,-99.99,,,-99.99,,2013-03-05 10:42:00,
2013-03-05 04:52:00,59.0,-99.9,30.02,SW,225,5.0,8.0,-999,-99.99,,,-99.99,,2013-03-05 10:52:00,
2013-03-05 05:02:00,60.0,-99.9,30.01,SSW,208,4.0,9.0,-999,-99.99,,,-99.99,,2013-03-05 11:02:00,
2013-03-05 05:12:00,60.0,-99.9,30.01,SSW,200,4.0,7.0,-999,-99.99,,,-99.99,,2013-03-05 11:12:00,
2013-03-05 05:22:00,60.0,-99.9,30.02,SSW,194,4.0,7.0,-999,-99.99,,,-99.99,,2013-03-05 11:22:00,
2013-03-05 05:32:00,60.0,-99.9,30.02,SSW,193,4.0,8.0,-999,-99.99,,,-99.99,,2013-03-05 11:32:00,
2013-03-05 05:42:00,60.0,-99.9,30.02,South,186,5.0,8.0,-999,-99.99,,,-99.99,,2013-03-05 11:42:00,
2013-03-05 05:52:00,60.0,-99.9,30.03,SW,215,2.0,6.0,-999,-99.99,,,-99.99,,2013-03-05 11:52:00,
2013-03-05 06:03:00,59.0,-99.9,30.03,West,266,2.0,4.0,-999,-99.99,,,-99.99,,2013-03-05 12:03:00,
2013-03-05 06:12:00,59.0,-99.9,30.04,WSW,251,4.0,6.0,-999,-99.99,,,-99.99,,2013-03-05 12:12:00,
2013-03-05 06:22:00,60.0,-99.9,30.03,WSW,255,4.0,6.0,-999,-99.99,,,-99.99,,2013-03-05 12:22:00,
2013-03-05 06:32:00,60.0,-99.9,30.03,West,265,4.0,6.0,-999,-99.99,,,-99.99,,2013-03-05 12:32:00,
2013-03-05 06:42:00,59.0,-99.9,30.02,SSW,207,3.0,5.0,-999,-99.99,,,-99.99,,2013-03-05 12:42:00,
2013-03-05 06:53:00,59.0,-99.9,30.02,SW,224,4.0,7.0,-999,-99.99,,,-99.99,,2013-03-05 12:53:00,
2013-03-05 07:02:00,60.0,-99.9,30.02,WNW,287,3.0,4.0,-999,-99.99,,,-99.99,,2013-03-05 13:02:00,
2013-03-05 07:12:00,59.0,-99.9,30.03,WSW,253,3.0,6.0,-999,-99.99,,,-99.99,,2013-03-05 13:12:00,
2013-03-05 07:22:00,60.0,-99.9,30.03,WNW,291,4.0,6.0,-999,-99.99,,,-99.99,,2013-03-05 13:22:00,
2013-03-05 07:32:00,60.0,-99.9,30.03,SW,230,4.0,6.0,-999,-99.99,,,-99.99,,2013-03-05 13:32:00,
2013-03-05 07:42:00,60.0,-99.9,30.03,SW,222,3.0,5.0,-999,-99.99,,,-99.99,,2013-03-05 13:42:00,
2013-03-05 07:52:00,60.0,-99.9,30.04,SW,230,3.0,4.0,-999,-99.99,,,-99.99,,2013-03-05 13:52:00,
2013-03-05 08:02:00,60.0,-99.9,30.04,SW,225,4.0,6.0,-999,-99.99,,,-99.99,,2013-03-05 14:02:00,
2013-03-05 08:11:00,60.0,-99.9,30.04,SSW,210,4.0,6.0,-999,-99.99,,,-99.99,,2013-03-05 14:11:00,
2013-03-05 08:22:00,60.0,-99.9,30.04,SW,232,3.0,7.0,-999,-99.99,,,-99.99,,2013-03-05 14:22:00,
2013-03-05 08:32:00,60.0,-99.9,30.05,WSW,246,3.0,6.0,-999,-99.99,,,-99.99,,2013-03-05 14:32:00,
2013-03-05 08:42:00,60.0,-99.9,30.06,West,266,5.0,8.0,-999,-99.99,,,-99.99,,2013-03-05 14:42:00,
2013-03-05 08:52:00,63.0,-99.9,30.10,West,274,9.0,16.0,-999,-99.99,,,-99.99,,2013-03-05 14:52:00,
2013-03-05 09:02:00,65.0,-99.9,30.10,West,268,11.0,14.0,-999,-99.99,,,-99.99,,2013-03-05 15:02:00,
2013-03-05 09:11:00,65.0,-99.9,30.10,WSW,258,9.0,17.0,-999,-99.99,,,-99.99,,2013-03-05 15:11:00,
2013-03-05 09:22:00,65.0,-99.9,30.10,West,262,8.0,15.0,-999,-99.99,,,-99.99,,2013-03-05 15:22:00,
2013-03-05 09:32:00,65.0,-99.9,30.10,WSW,253,11.0,16.0,-999,-99.99,,,-99.99,,2013-03-05 15:32:00,
2013-03-05 09:42:00,64.0,-99.9,30.10,SW,232,8.0,12.0,-999,-99.99,,,-99.99,,2013-03-05 15:42:00,
2013-03-05 09:52:00,62.0,-99.9,30.09,SW,231,8.0,13.0,-999,-99.99,,,-99.99,,2013-03-05 15:52:00,
2013-03-05 10:02:00,62.0,-99.9,30.09,SW,236,4.0,8.0,-999,-99.99,,,-99.99,,2013-03-05 16:02:00,
2013-03-05 10:11:00,61.0,-99.9,30.09,SW,217,4.0,9.0,-999,-99.99,,,-99.99,,2013-03-05 16:11:00,
2013-03-05 10:22:00,62.0,-99.9,30.09,SW,222,7.0,11.0,-999,-99.99,,,-99.99,,2013-03-05 16:22:00,
2013-03-05 10:32:00,63.0,-99.9,30.09,WSW,242,7.0,11.0,-999,-99.99,,,-99.99,,2013-03-05 16:32:00,
2013-03-05 10:42:00,62.0,-99.9,30.09,SW,221,7.0,11.0,-999,-99.99,,,-99.99,,2013-03-05 16:42:00,
2013-03-05 10:52:00,63.0,-99.9,30.09,SW,215,7.0,11.0,-999,-99.99,,,-99.99,,2013-03-05 16:52:00,
2013-03-05 11:01:00,63.0,-99.9,30.08,SSW,201,9.0,14.0,-999,-99.99,,,-99.99,,2013-03-05 17:01:00,
2013-03-05 11:11:00,63.0,-99.9,30.07,SSW,202,9.0,14.0,-999,-99.99,,,-99.99,,2013-03-05 17:11:00,
2013-03-05 11:22:00,63.0,-99.9,30.07,SSW,211,10.0,13.0,-999,-99.99,,,-99.99,,2013-03-05 17:22:00,
2013-03-05 11:32:00,63.0,-99.9,30.07,SSW,208,10.0,13.0,-999,-99.99,,,-99.99,,2013-03-05 17:32:00,
2013-03-05 11:42:00,64.0,-99.9,30.07,SW,218,7.0,15.0,-999,-99.99,,,-99.99,,2013-03-05 17:42:00,
2013-03-05 11:53:00,64.0,-99.9,30.07,SW,224,9.0,13.0,-999,-99.99,,,-99.99,,2013-03-05 17:53:00,
2013-03-05 12:02:00,64.0,-99.9,30.06,SW,216,7.0,13.0,-999,-99.99,,,-99.99,,2013-03-05 18:02:00,
2013-03-05 12:11:00,64.0,-99.9,30.06,SW,220,8.0,14.0,-999,-99.99,,,-99.99,,2013-03-05 18:11:00,
2013-03-05 12:22:00,65.0,-99.9,30.05,SSW,213,8.0,13.0,-999,-99.99,,,-99.99,,2013-03-05 18:22:00,
2013-03-05 12:32:00,65.0,-99.9,30.04,SW,218,7.0,14.0,-999,-99.99,,,-99.99,,2013-03-05 18:32:00,
2013-03-05 12:42:00,65.0,-99.9,30.04,SW,220,10.0,15.0,-999,-99.99,,,-99.99,,2013-03-05 18:42:00,
2013-03-05 12:53:00,65.0,-99.9,30.04,SW,220,11.0,15.0,-999,-99.99,,,-99.99,,2013-03-05 18:53:00,
2013-03-05 13:02:00,64.0,-99.9,30.03,SW,224,15.0,18.0,-999,-99.99,,,-99.99,,2013-03-05 19:02:00,
2013-03-05 13:11:00,64.0,-99.9,30.03,SW,224,16.0,20.0,-999,-99.99,,,-99.99,,2013-03-05 19:11:00,
2013-03-05 13:22:00,65.0,-99.9,30.02,SW,225,17.0,21.0,-999,-99.99,,,-99.99,,2013-03-05 19:22:00,
2013-03-05 13:32:00,65.0,-99.9,30.02,SW,224,17.0,21.0,-999,-99.99,,,-99.99,,2013-03-05 19:32:00,
2013-03-05 13:42:00,65.0,-99.9,30.01,SW,225,17.0,22.0,-999,-99.99,,,-99.99,,2013-03-05 19:42:00,
2013-03-05 13:52:00,64.0,-99.9,30.01,SW,226,15.0,20.0,-999,-99.99,,,-99.99,,2013-03-05 19:52:00,
2013-03-05 14:02:00,64.0,-99.9,30.01,SW,226,18.0,20.0,-999,-99.99,,,-99.99,,2013-03-05 20:02:00,
2013-03-05 14:11:00,64.0,-99.9,30.00,SW,226,16.0,24.0,-999,-99.99,,,-99.99,,2013-03-05 20:11:00,
2013-03-05 14:22:00,64.0,-99.9,30.00,SW,225,19.0,23.0,-999,-99.99,,,-99.99,,2013-03-05 20:22:00,
2013-03-05 14:32:00,64.0,-99.9,29.99,SW,222,16.0,23.0,-999,-99.99,,,-99.99,,2013-03-05 20:32:00,
2013-03-05 14:42:00,65.0,-99.9,29.99,SW,221,13.0,20.0,-999,-99.99,,,-99.99,,2013-03-05 20:42:00,
2013-03-05 14:52:00,65.0,-99.9,29.99,SW,222,14.0,20.0,-999,-99.99,,,-99.99,,2013-03-05 20:52:00,
2013-03-05 15:02:00,65.0,-99.9,29.99,SW,223,16.0,22.0,-999,-99.99,,,-99.99,,2013-03-05 21:02:00,
2013-03-05 15:11:00,65.0,-99.9,29.98,SW,224,19.0,21.0,-999,-99.99,,,-99.99,,2013-03-05 21:11:00,
2013-03-05 15:22:00,65.0,-99.9,29.98,SW,224,17.0,24.0,-999,-99.99,,,-99.99,,2013-03-05 21:22:00,
2013-03-05 15:32:00,65.0,-99.9,29.98,SW,224,19.0,24.0,-999,-99.99,,,-99.99,,2013-03-05 21:32:00,
2013-03-05 15:42:00,65.0,-99.9,29.98,SW,227,19.0,24.0,-999,-99.99,,,-99.99,,2013-03-05 21:42:00,
2013-03-05 15:52:00,65.0,-99.9,29.98,SW,226,19.0,25.0,-999,-99.99,,,-99.99,,2013-03-05 21:52:00,
2013-03-05 16:02:00,65.0,-99.9,29.98,SW,228,17.0,24.0,-999,-99.99,,,-99.99,,2013-03-05 22:02:00,
2013-03-05 16:12:00,65.0,-99.9,29.98,SW,227,14.0,25.0,-999,-99.99,,,-99.99,,2013-03-05 22:12:00,
2013-03-05 16:22:00,65.0,-99.9,29.98,SW,229,13.0,20.0,-999,-99.99,,,-99.99,,2013-03-05 22:22:00,
2013-03-05 16:32:00,65.0,-99.9,29.98,WSW,239,11.0,17.0,-999,-99.99,,,-99.99,,2013-03-05 22:32:00,
2013-03-05 16:42:00,65.0,-99.9,29.98,SW,235,11.0,18.0,-999,-99.99,,,-99.99,,2013-03-05 22:42:00,
2013-03-05 16:52:00,65.0,-99.9,29.98,WSW,238,15.0,20.0,-999,-99.99,,,-99.99,,2013-03-05 22:52:00,
2013-03-05 17:01:00,65.0,-99.9,29.98,WSW,239,14.0,23.0,-999,-99.99,,,-99.99,,2013-03-05 23:01:00,
2013-03-05 17:11:00,65.0,-99.9,29.98,WSW,239,15.0,22.0,-999,-99.99,,,-99.99,,2013-03-05 23:11:00,
2013-03-05 17:22:00,64.0,-99.9,29.98,WSW,243,15.0,20.0,-999,-99.99,,,-99.99,,2013-03-05 23:22:00,
2013-03-05 17:32:00,64.0,-99.9,29.99,WSW,243,13.0,21.0,-999,-99.99,,,-99.99,,2013-03-05 23:32:00,
2013-03-05 17:42:00,64.0,-99.9,29.99,WSW,244,13.0,20.0,-999,-99.99,,,-99.99,,2013-03-05 23:42:00,
2013-03-05 17:53:00,64.0,-99.9,30.00,WSW,248,15.0,20.0,-999,-99.99,,,-99.99,,2013-03-05 23:53:00,
2013-03-05 18:02:00,64.0,-99.9,30.01,WSW,250,16.0,22.0,-999,-99.99,,,-99.99,,2013-03-06 00:02:00,
2013-03-05 18:11:00,64.0,-99.9,30.01,WSW,250,14.0,20.0,-999,-99.99,,,-99.99,,2013-03-06 00:11:00,
2013-03-05 18:22:00,64.0,-99.9,30.02,West,266,13.0,15.0,-999,-99.99,,,-99.99,,2013-03-06 00:22:00,
2013-03-05 18:32:00,64.0,-99.9,30.02,WSW,255,12.0,17.0,-999,-99.99,,,-99.99,,2013-03-06 00:32:00,
2013-03-05 18:42:00,64.0,-99.9,30.02,West,260,11.0,13.0,-999,-99.99,,,-99.99,,2013-03-06 00:42:00,
2013-03-05 18:52:00,64.0,-99.9,30.03,West,267,8.0,12.0,-999,-99.99,,,-99.99,,2013-03-06 00:52:00,
2013-03-05 19:02:00,64.0,-99.9,30.04,WNW,294,13.0,17.0,-999,-99.99,,,-99.99,,2013-03-06 01:02:00,
2013-03-05 19:11:00,62.0,-99.9,30.04,WNW,300,14.0,17.0,-999,-99.99,,,-99.99,,2013-03-06 01:11:00,
2013-03-05 19:22:00,62.0,-99.9,30.05,NW,312,13.0,20.0,-999,-99.99,,,-99.99,,2013-03-06 01:22:00,
2013-03-05 19:32:00,64.0,-99.9,30.06,NNW,328,19.0,21.0,-999,-99.99,,,-99.99,,2013-03-06 01:32:00,
2013-03-05 19:42:00,63.0,-99.9,30.06,NNW,331,18.0,24.0,-999,-99.99,,,-99.99,,2013-03-06 01:42:00,
2013-03-05 19:52:00,63.0,-99.9,30.06,NNW,333,25.0,28.0,-999,-99.99,,,-99.99,,2013-03-06 01:52:00,
2013-03-05 20:01:00,63.0,-99.9,30.07,NNW,336,27.0,31.0,-999,-99.99,,,-99.99,,2013-03-06 02:01:00,
2013-03-05 20:11:00,62.0,-99.9,30.08,NNW,340,26.0,28.0,-999,-99.99,,,-99.99,,2013-03-06 02:11:00,
2013-03-05 20:22:00,61.0,-99.9,30.08,NNW,339,25.0,29.0,-999,-99.99,,,-99.99,,2013-03-06 02:22:00,
2013-03-05 20:32:00,61.0,-99.9,30.09,NNW,341,22.0,25.0,-999,-99.99,,,-99.99,,2013-03-06 02:32:00,
2013-03-05 20:42:00,60.0,-99.9,30.09,NNW,343,21.0,23.0,-999,-99.99,,,-99.99,,2013-03-06 02:42:00,
2013-03-05 20:52:00,60.0,-99.9,30.10,NNW,345,19.0,22.0,-999,-99.99,,,-99.99,,2013-03-06 02:52:00,
2013-03-05 21:02:00,60.0,-99.9,30.11,NNW,348,22.0,24.0,-999,-99.99,,,-99.99,,2013-03-06 03:02:00,
2013-03-05 21:12:00,59.0,-99.9,30.11,NNW,345,20.0,25.0,-999,-99.99,,,-99.99,,2013-03-06 03:12:00,
2013-03-05 21:22:00,59.0,-99.9,30.11,NNW,348,19.0,21.0,-999,-99.99,,,-99.99,,2013-03-06 03:22:00,
2013-03-05 21:32:00,58.0,-99.9,30.12,North,2,20.0,23.0,-999,-99.99,,,-99.99,,2013-03-06 03:32:00,
2013-03-05 21:42:00,57.0,-99.9,30.13,North,2,21.0,24.0,-999,-99.99,,,-99.99,,2013-03-06 03:42:00,
2013-03-05 21:53:00,57.0,-99.9,30.14,North,358,24.0,29.0,-999,-99.99,,,-99.99,,2013-03-06 03:53:00,
2013-03-05 22:02:00,57.0,-99.9,30.14,North,350,22.0,25.0,-999,-99.99,,,-99.99,,2013-03-06 04:02:00,
2013-03-05 22:11:00,56.0,-99.9,30.15,NNW,347,22.0,25.0,-999,-99.99,,,-99.99,,2013-03-06 04:11:00,
2013-03-05 22:22:00,56.0,-99.9,30.15,North,349,21.0,26.0,-999,-99.99,,,-99.99,,2013-03-06 04:22:00,
2013-03-05 22:32:00,56.0,-99.9,30.16,North,352,20.0,24.0,-999,-99.99,,,-99.99,,2013-03-06 04:32:00,
2013-03-05 22:42:00,56.0,-99.9,30.16,North,355,22.0,24.0,-999,-99.99,,,-99.99,,2013-03-06 04:42:00,
2013-03-05 22:52:00,56.0,-99.9,30.16,North,353,21.0,23.0,-999,-99.99,,,-99.99,,2013-03-06 04:52:00,
2013-03-05 23:02:00,55.0,-99.9,30.16,North,354,18.0,22.0,-999,-99.99,,,-99.99,,2013-03-06 05:02:00,
2013-03-05 23:12:00,55.0,-99.9,30.16,North,352,17.0,20.0,-999,-99.99,,,-99.99,,2013-03-06 05:12:00,
2013-03-05 23:23:00,55.0,-99.9,30.16,North,1,18.0,21.0,-999,-99.99,,,-99.99,,2013-03-06 05:23:00,
2013-03-05 23:32:00,55.0,-99.9,30.16,North,-999,19.0,21.0,-999,-99.99,,,-99.99,,2013-03-06 05:32:00,
2013-03-05 23:42:00,55.0,-99.9,30.16,North,1,19.0,22.0,-999,-99.99,,,-99.99,,2013-03-06 05:42:00,
2013-03-05 23:52:00,54.0,-99.9,30.17,North,-999,20.0,22.0,-999,-99.99,,,-99.99,,2013-03-06 05:52:00,